Location: Unspecified
(34.4500°N, 0.0000°E)
Time: 16:24:10
(UTC+00:00)

Hubble Space Telescope - Visible Passes

Search period start: 25 February 2021 00:00
Search period end: 07 March 2021 00:00
Orbit: 536 x 539 km, 28.5° (Epoch: 25 February)

Date Brightness Start Highest point End Pass type
(mag) Time Alt. Az. Time Alt. Az. Time Alt. Az.
02 Mar 3.1 19:19:10 10° S 19:20:05 11° SSE 19:20:05 11° SSE visible
03 Mar 2.8 19:07:19 10° S 19:09:29 14° SSE 19:10:07 13° SSE visible
04 Mar 2.7 18:55:51 10° SSW 18:58:31 17° SSE 19:00:06 14° SE visible
05 Mar 2.5 18:44:33 10° SSW 18:47:33 20° SSE 18:50:01 12° ESE visible
05 Mar 3.4 20:24:32 10° WSW 20:25:21 15° SW 20:25:21 15° SW visible
06 Mar 2.4 18:33:22 10° SW 18:36:36 23° SSE 18:39:52 10° ESE visible
06 Mar 2.9 20:13:35 10° WSW 20:15:14 21° SW 20:15:14 21° SW visible
